Location: Augirein
(42.9320°N, 0.9181°E)
Time: 14:54:46
(UTC+00:00)

PAYLOAD A - Pass Details

Date: 20 June 2021
Orbit: 692 x 831 km, 98.4° (Epoch: 03 August)

Event Time Altitude Azimuth Distance (km) Brightness Sun altitude
Rises 03:30:33 0° 15° (NNE) 3,196 8.3 -7.6°
Reaches altitude 10° 03:32:50 10° 18° (NNE) 2,289 7.5 -7.3°
Maximum altitude 03:37:52 71° 102° (ESE) 821 4.3 -6.6°
Drops below altitude 10° 03:43:05 10° 187° (S) 2,361 6.1 -5.8°
Sets 03:45:27 0° 189° (S) 3,305 6.8 -5.5°
